| time (UTC) | temp F | wind direction | speed knots | gust knots | rain 1hr in | rain 24hr in | rain mn in | humidity % | barometer mb |
| 20260508013046 | 50 | 270 | 6.1 | 0.0 | 0.00 | 0.00 | 0.00 | 71 | 1018.0 |
| 20260508003042 | 51 | 230 | 3.5 | 0.0 | 0.00 | 0.00 | 0.00 | 66 | 1018.0 |
| 20260508000043 | 51 | 220 | 3.5 | 0.0 | 0.00 | 0.00 | 0.00 | 66 | 1018.0 |
| 20260507233042 | 51 | 220 | 3.5 | 0.0 | 0.00 | 0.00 | 0.00 | 66 | 1018.0 |
| 20260507230043 | 53 | 240 | 3.5 | 0.0 | 0.00 | 0.00 | 0.00 | 62 | 1018.0 |
| 20260507223042 | 53 | 240 | 3.5 | 0.0 | 0.00 | 0.00 | 0.00 | 62 | 1018.0 |
| 20260507220043 | 53 | 210 | 6.1 | 0.0 | 0.00 | 0.00 | 0.00 | 62 | 1018.0 |
| 20260507213042 | 53 | 210 | 6.1 | 0.0 | 0.00 | 0.00 | 0.00 | 62 | 1018.0 |
| 20260507210043 | 53 | 230 | 6.1 | 0.0 | 0.00 | 0.00 | 0.00 | 66 | 1018.0 |
| 20260507203043 | 53 | 230 | 6.1 | 0.0 | 0.00 | 0.00 | 0.00 | 66 | 1018.0 |
| 20260507200043 | 50 | 230 | 6.1 | 0.0 | 0.00 | 0.00 | 0.00 | 76 | 1018.0 |
| 20260507193044 | 50 | 230 | 6.1 | 0.0 | 0.00 | 0.00 | 0.00 | 76 | 1018.0 |
| 20260507190044 | 57 | 260 | 3.5 | 0.0 | 0.00 | 0.00 | 0.00 | 58 | 1018.0 |
| 20260507180044 | 55 | 240 | 3.5 | 0.0 | 0.00 | 0.00 | 0.00 | 62 | 1017.0 |
| 20260507173044 | 55 | 240 | 3.5 | 0.0 | 0.00 | 0.00 | 0.00 | 62 | 1017.0 |
| 20260507170044 | 62 | 230 | 1.7 | 0.0 | 0.00 | 0.00 | 0.00 | 45 | 1017.0 |
| 20260507163046 | 62 | 230 | 1.7 | 0.0 | 0.00 | 0.00 | 0.00 | 45 | 1017.0 |
| 20260507160043 | 62 | 350 | 6.1 | 0.0 | 0.00 | 0.00 | 0.00 | 51 | 1017.0 |
| 20260507150043 | 64 | 300 | 7.8 | 0.0 | 0.00 | 0.00 | 0.00 | 48 | 1017.0 |
| 20260507143044 | 64 | 300 | 7.8 | 0.0 | 0.00 | 0.00 | 0.00 | 48 | 1017.0 |
| 20260507140049 | 60 | 310 | 7.8 | 0.0 | 0.00 | 0.00 | 0.00 | 55 | 1017.0 |
| 20260507133044 | 60 | 310 | 7.8 | 0.0 | 0.00 | 0.00 | 0.00 | 55 | 1017.0 |
| 20260507130044 | 62 | 300 | 11.3 | 0.0 | 0.00 | 0.00 | 0.00 | 59 | 1017.0 |
| 20260507123044 | 62 | 300 | 11.3 | 0.0 | 0.00 | 0.00 | 0.00 | 59 | 1017.0 |
| 20260507120043 | 60 | 270 | 9.6 | 0.0 | 0.00 | 0.00 | 0.00 | 63 | 1017.0 |
| 20260507113043 | 60 | 270 | 9.6 | 0.0 | 0.00 | 0.00 | 0.00 | 63 | 1017.0 |
| 20260507110044 | 64 | 260 | 9.6 | 0.0 | 0.00 | 0.00 | 0.00 | 48 | 1017.0 |
| 20260507100043 | 66 | 340 | 3.5 | 0.0 | 0.00 | 0.00 | 0.00 | 42 | 1017.0 |
| 20260507093046 | 68 | 30 | 3.5 | 0.0 | 0.00 | 0.00 | 0.00 | 39 | 1017.0 |
| 20260507090043 | 68 | 30 | 3.5 | 0.0 | 0.00 | 0.00 | 0.00 | 39 | 1018.0 |
| 20260507083044 | 64 | 300 | 1.7 | 0.0 | 0.00 | 0.00 | 0.00 | 45 | 1018.0 |
| 20260507080045 | 66 | 260 | 3.5 | 0.0 | 0.00 | 0.00 | 0.00 | 42 | 1018.0 |
| 20260507073043 | 66 | 220 | 7.8 | 0.0 | 0.00 | 0.00 | 0.00 | 45 | 1018.0 |
| 20260507070045 | 62 | 240 | 7.8 | 0.0 | 0.00 | 0.00 | 0.00 | 48 | 1018.0 |
| 20260507060043 | 59 | 220 | 6.1 | 0.0 | 0.00 | 0.00 | 0.00 | 58 | 1018.0 |
| 20260507053043 | 57 | 210 | 6.1 | 0.0 | 0.00 | 0.00 | 0.00 | 62 | 1018.0 |
| 20260507043045 | 53 | 220 | 6.1 | 0.0 | 0.00 | 0.00 | 0.00 | 71 | 1017.0 |
| 20260507040044 | 51 | 210 | 1.7 | 0.0 | 0.00 | 0.00 | 0.00 | 76 | 1017.0 |
| 20260507033044 | 51 | 210 | 1.7 | 0.0 | 0.00 | 0.00 | 0.00 | 76 | 1017.0 |
| 20260507030044 | 51 | 230 | 1.7 | 0.0 | 0.00 | 0.00 | 0.00 | 71 | 1016.0 |
| 20260507023045 | 51 | 230 | 1.7 | 0.0 | 0.00 | 0.00 | 0.00 | 71 | 1016.0 |
| 20260507020043 | 50 | 240 | 6.1 | 0.0 | 0.00 | 0.00 | 0.00 | 76 | 1016.0 |